Location: Avully
(45.9633°N, 6.0228°E)
Time: 12:51:17
(UTC+00:00)

Cosmos 2151 Rocket - Pass Details

Date: 23 May 2024
Orbit: 614 x 639 km, 82.5° (Epoch: 18 June)

Event Time Altitude Azimuth Distance (km) Brightness Sun altitude
Rises 02:34:54 0° 350° (N) 2,941 7.6 -11.6°
Reaches altitude 10° 02:37:09 10° 350° (N) 2,025 6.7 -11.4°
Maximum altitude 02:41:39 83° 263° (W) 639 3.5 -10.8°
Drops below altitude 10° 02:46:04 10° 175° (S) 1,992 5.8 -10.3°
Enters shadow 02:48:06 - 175° (S) 2,817 6.6 -10.0°
